Theta_e
319 319 319 318 318 318 316 316 317 318 317 316 316 316 316 315 315 316 316 316 316 315 315 316 317 317 310 302 299 325 354 342 353 335 333 327 330 323 309 312 320 321 323 322 324 322 328
320 319 319 318 318 317 317 317 317 317 317 317 317 317 316 316 316 316 317 316 316 314 315 316 317 317 304 289 303 309 332 331 335 326 325 316 324 316 306 304 311 315 322 321 317 318 325
319 318 318 318 317 317 317 317 316 316 317 316 317 316 316 316 316 316 316 315 314 314 315 317 317 313 307 295 306 307 327 325 328 320 312 313 313 313 306 302 308 309 306 310 316 317 322
319 318 317 317 317 317 317 316 316 316 316 316 315 315 316 316 316 315 314 313 314 316 318 319 319 311 295 309 311 309 306 310 322 317 311 314 312 307 304 305 305 300 299 296 303 316 321
318 318 317 317 317 317 316 316 316 316 315 315 315 315 315 315 314 313 312 313 315 321 321 321 310 305 296 317 312 311 306 305 312 312 311 318 311 304 303 299 295 295 293 296 301 312 313
317 317 317 316 315 316 316 316 315 315 315 315 314 314 314 314 313 311 311 313 314 319 318 318 317 302 306 304 312 313 307 309 306 307 308 307 303 299 296 295 290 293 292 295 299 303 310
317 315 315 315 314 315 315 315 315 314 314 314 314 313 313 312 311 310 307 299 296 296 297 305 304 305 307 309 312 310 308 306 306 303 298 302 297 295 297 297 298 298 296 297 300 305 308
316 315 314 314 314 314 314 314 314 314 313 314 313 313 312 311 310 310 300 297 296 296 290 299 299 300 307 305 303 306 308 301 300 297 299 295 296 301 302 300 300 297 296 296 299 303 301
315 314 314 314 314 314 314 314 314 313 313 313 313 312 311 310 309 301 297 297 300 297 289 295 298 299 300 303 300 302 305 302 299 296 298 298 296 303 302 299 298 295 296 296 297 300 302
313 314 314 314 314 314 314 314 313 313 313 313 312 312 310 309 298 298 295 299 300 299 285 292 294 298 301 301 297 307 308 304 299 299 296 295 302 302 298 298 299 291 299 300 299 295 292
314 314 314 313 313 313 313 313 313 313 313 312 312 311 309 308 296 295 297 301 301 292 282 300 294 302 300 298 298 301 310 304 298 298 297 296 298 298 298 300 300 297 302 299 298 294 291
314 313 313 312 312 313 313 312 312 312 312 312 311 310 309 301 296 298 300 299 293 287 282 295 298 294 295 295 297 303 304 305 304 299 298 298 301 302 300 301 302 302 298 295 293 291 287
312 312 311 311 311 312 312 312 312 312 311 311 310 308 306 304 294 299 299 293 284 281 294 293 292 295 294 292 294 298 298 299 297 291 292 296 298 299 301 297 298 298 292 285 284 285 289
311 312 312 312 312 312 312 312 312 311 311 310 307 306 301 302 301 299 294 287 278 289 288 295 295 295 292 293 293 295 295 297 299 296 293 291 289 298 300 297 295 295 292 285 281 282 287
311 312 312 312 312 312 312 312 311 311 310 309 306 296 295 298 301 297 289 279 281 286 293 292 292 290 289 293 293 293 291 296 299 295 292 290 291 300 301 301 301 292 292 294 286 286 284
311 311 312 312 312 312 312 312 311 311 310 308 297 296 292 300 297 293 286 282 285 293 294 292 286 290 286 289 290 289 290 296 296 300 296 293 290 298 301 302 301 296 297 290 284 282 281
311 311 311 312 312 312 312 312 311 310 309 307 291 287 293 298 295 289 280 283 289 295 295 290 288 288 287 288 289 288 289 295 299 298 299 292 291 292 298 297 297 293 291 288 291 286 284
312 312 312 312 312 312 312 312 311 309 307 298 287 282 294 295 284 283 285 287 294 293 294 292 292 290 289 291 289 289 291 294 299 298 294 295 286 289 292 297 302 302 295 290 287 285 287
311 312 312 312 312 312 312 311 310 308 307 293 287 288 294 294 279 280 285 288 292 292 291 290 289 293 292 289 285 291 293 298 297 296 296 295 287 283 287 294 295 295 297 296 294 287 289
311 311 311 312 312 312 312 311 310 309 308 294 286 283 286 291 286 283 282 284 286 293 292 292 291 293 290 288 290 288 291 296 297 298 304 296 287 285 285 287 292 290 295 296 296 292 292
311 310 310 311 312 312 312 311 310 308 307 295 288 285 290 280 283 287 284 285 285 285 291 293 290 289 287 282 286 286 290 291 294 299 294 291 285 287 290 293 294 294 294 295 294 296 293
310 310 310 310 311 311 312 311 310 309 306 294 290 290 292 287 290 287 286 282 285 286 287 287 288 289 287 283 286 284 286 286 287 292 289 288 285 287 288 294 294 292 295 296 296 296 296
310 310 310 310 310 311 311 311 310 309 303 296 298 298 292 289 285 285 285 286 286 287 289 292 290 287 286 289 291 291 291 290 290 287 286 286 285 285 283 290 291 289 294 296 296 298 297
310 310 310 310 310 309 310 311 311 309 304 296 294 296 290 284 286 286 287 288 286 287 286 289 290 287 291 294 293 290 288 288 290 290 290 285 284 285 283 286 281 292 298 300 298 300 300
310 310 310 310 310 310 310 309 310 310 308 296 295 295 292 285 288 286 288 288 287 287 285 287 290 291 292 290 285 282 281 282 287 289 289 291 286 283 282 283 289 293 300 303 300 298 303
311 311 310 310 310 310 310 310 309 310 309 298 295 296 294 288 286 290 286 287 284 284 285 287 291 291 290 285 284 278 277 281 282 287 290 290 291 286 283 282 282 294 305 311 310 296 304
310 311 311 310 310 310 310 310 310 310 309 301 297 297 297 290 292 291 286 285 289 289 285 288 286 287 288 287 284 280 279 285 280 281 282 283 285 283 284 285 289 297 309 315 296 297 313
310 311 311 311 311 310 310 310 310 310 310 304 299 300 297 292 292 292 293 290 289 289 285 284 284 286 288 284 282 284 284 283 282 284 284 283 283 283 284 284 282 307 308 304 306 312 316
310 310 310 310 311 312 311 311 311 311 310 309 298 301 302 295 293 297 296 297 295 294 291 290 287 286 287 286 286 286 285 285 284 281 290 284 289 288 288 287 298 308 308 312 314 314 316
Wind_Speed
16 16 17 17 17 18 20 21 21 20 21 22 23 24 24 24 24 24 24 24 23 24 22 18 14 11 4 2 14 5 12 19 18 11 19 12 19 6 8 6 6 7 10 6 10 6 12
17 17 17 17 18 18 19 20 21 21 21 22 23 23 24 24 25 26 25 23 22 23 22 18 12 6 3 7 6 5 10 19 20 14 12 8 14 8 4 4 8 4 12 15 7 9 9
18 18 18 18 18 19 19 20 21 21 22 22 23 24 25 26 27 28 29 28 26 24 23 19 12 7 3 17 4 6 9 8 17 16 11 6 6 10 5 3 6 5 6 3 8 8 7
17 18 19 19 19 19 19 20 21 21 22 22 24 25 26 27 27 30 31 31 28 22 14 8 15 7 10 4 3 4 5 3 12 5 1 6 5 5 3 3 8 3 1 1 1 8 6
17 17 18 18 19 19 19 20 21 22 22 23 24 25 26 28 30 31 33 30 16 7 12 20 10 4 11 1 4 7 10 7 9 3 1 4 6 4 2 2 5 5 4 5 5 10 5
18 18 19 20 20 20 20 20 21 22 23 24 24 25 27 27 30 32 33 23 5 8 9 5 5 1 5 5 4 5 5 14 6 8 4 4 3 5 3 7 12 6 4 4 5 2 4
18 19 19 20 21 20 21 22 22 24 24 25 26 26 28 30 29 32 17 4 7 3 4 8 4 6 5 4 2 5 7 9 8 5 10 6 5 14 10 5 5 5 4 4 2 2 4
18 20 20 20 20 20 21 21 22 23 25 25 26 27 27 31 32 24 6 7 7 3 15 14 21 18 17 4 5 4 12 9 8 7 9 5 18 10 9 7 8 5 5 8 4 6 2
18 18 19 19 20 20 20 21 22 22 24 25 26 27 27 29 32 5 4 5 3 2 5 11 8 8 8 14 12 9 15 7 7 9 17 19 6 12 12 7 10 5 13 6 5 4 2
18 17 18 18 19 19 20 20 21 22 23 25 26 27 27 30 6 6 5 2 5 3 4 10 6 8 5 9 7 11 16 10 5 21 9 6 8 18 9 13 12 9 6 6 7 4 4
17 17 18 19 20 20 21 21 22 22 22 25 27 26 25 15 4 5 7 12 11 2 7 0 2 1 5 7 1 8 7 3 11 9 11 12 15 15 17 13 10 8 8 9 6 6 2
18 19 20 20 21 21 21 22 22 23 23 25 27 28 26 1 2 7 10 12 2 4 12 3 4 1 4 4 3 4 6 1 6 6 1 8 5 14 11 8 11 8 4 6 6 5 7
19 20 20 21 21 21 21 22 23 23 23 25 28 27 19 2 5 4 7 5 3 7 7 5 4 5 5 4 2 5 10 14 12 9 11 5 13 3 6 9 4 8 8 2 2 3 11
20 19 19 19 20 20 20 21 22 22 23 25 27 24 7 4 7 4 4 5 5 2 4 5 5 8 2 7 3 7 9 16 6 5 8 11 6 18 6 11 12 10 10 8 9 5 7
20 20 19 19 20 20 21 21 21 22 22 23 23 5 6 4 6 2 6 1 5 3 7 9 8 5 5 5 4 5 4 7 7 3 8 9 11 3 9 6 17 7 12 11 5 2 2
20 21 21 20 19 20 21 21 21 21 23 22 6 6 6 6 4 4 5 5 5 6 12 6 4 5 5 7 6 7 6 8 11 6 5 4 1 6 18 6 8 12 9 5 1 7 6
21 22 21 20 19 19 20 20 20 19 20 16 4 5 5 10 3 5 3 5 7 12 13 6 6 7 4 4 4 5 6 5 11 10 8 5 4 4 9 12 18 4 6 3 6 7 7
21 20 20 20 19 20 20 19 18 16 17 7 3 4 4 7 6 2 4 10 10 12 9 6 4 3 3 5 4 5 5 5 10 8 5 1 3 7 6 2 9 20 9 8 8 9 6
20 19 19 19 19 19 19 18 15 13 11 2 3 4 5 4 5 4 6 5 4 10 9 8 5 5 4 3 4 4 4 5 13 10 5 6 2 2 5 8 3 5 10 12 9 4 13
20 20 20 21 21 18 16 14 11 11 10 3 3 6 5 4 2 4 6 6 6 8 5 10 10 6 6 6 5 4 6 4 7 5 9 3 2 4 3 3 4 7 8 8 17 15 14
18 18 19 20 19 18 17 15 12 11 8 4 2 1 0 5 4 7 5 5 7 7 4 5 5 13 7 3 4 3 5 5 6 7 5 4 0 2 3 10 7 12 16 14 13 21 16
17 18 19 19 18 18 17 16 13 9 3 2 1 2 1 5 6 7 6 5 5 9 3 8 4 13 13 4 2 2 6 2 4 6 6 5 3 2 4 9 10 11 15 16 15 10 12
17 17 19 19 19 18 17 17 15 9 4 1 2 2 1 2 3 3 2 3 10 8 9 6 8 12 9 3 4 9 9 9 8 2 2 3 2 2 5 4 10 17 10 15 9 9 9
17 17 18 19 19 19 18 17 15 8 8 2 2 1 3 4 4 7 10 15 13 10 10 15 12 8 6 8 9 6 6 11 11 14 10 4 1 1 4 2 10 4 9 7 18 18 15
18 18 19 19 19 18 18 18 16 12 3 3 2 2 2 4 7 8 12 12 8 9 8 9 13 6 6 5 4 6 5 2 8 17 15 16 6 4 4 7 13 19 5 4 4 9 13
19 18 20 20 20 19 18 17 16 14 9 3 3 3 2 4 5 10 4 4 11 7 5 4 6 6 2 2 1 3 4 3 4 6 12 13 14 6 2 6 10 2 2 6 4 7 7
20 20 21 22 22 22 20 19 18 17 12 4 3 5 3 4 5 8 8 5 5 3 3 6 5 5 2 2 4 4 5 3 4 3 1 4 7 16 13 8 7 6 5 5 9 7 16
20 21 22 22 23 23 23 22 21 19 16 3 3 6 3 4 9 11 11 13 9 6 5 4 5 2 0 2 3 3 4 3 4 4 4 7 8 7 8 7 19 1 3 6 3 8 12
21 22 23 24 24 23 23 23 22 21 18 9 4 3 4 6 8 13 16 16 19 17 7 6 7 2 3 2 3 2 3 3 4 5 3 7 10 5 10 8 7 4 9 8 5 9 10
Wind_Direction
355 357 357 358 355 353 353 352 348 344 342 340 338 335 333 331 326 322 318 313 310 307 303 299 294 301 325 222 247 187 96 148 162 175 166 167 167 169 176 195 156 238 248 171 231 164 184
352 353 355 354 355 352 350 347 347 342 338 337 334 332 330 328 325 321 315 311 306 302 296 287 277 258 206 236 232 225 140 152 166 178 187 158 185 176 191 203 184 211 252 258 243 241 171
4 2 360 356 353 349 347 346 345 342 338 335 334 332 329 327 326 321 316 313 309 301 288 274 236 188 216 232 148 72 147 165 164 180 166 208 173 182 171 289 239 265 277 250 196 213 190
5 2 360 358 355 350 346 344 343 340 338 336 335 332 329 327 325 322 319 314 312 304 281 215 176 175 240 227 277 266 208 108 169 186 295 204 127 140 174 297 354 320 94 75 217 180 202
3 359 358 357 354 350 347 345 344 341 339 337 336 333 330 328 327 324 322 318 331 23 100 127 131 196 260 263 196 197 166 171 137 181 356 139 112 198 109 117 355 340 230 196 306 189 134
2 0 358 357 353 349 347 346 344 342 340 338 337 335 331 331 329 326 323 318 287 88 114 190 113 317 249 214 196 151 178 146 158 135 91 159 127 166 154 156 208 202 209 240 230 208 151
4 360 357 357 354 351 348 346 344 343 341 339 337 336 334 331 331 329 330 8 8 360 346 221 203 276 292 270 258 169 158 137 117 130 159 187 169 214 198 185 160 189 205 215 235 233 158
2 357 354 353 352 349 347 346 344 343 340 337 335 333 334 330 329 326 335 72 94 240 298 246 245 249 256 32 344 225 136 142 157 175 126 116 220 199 178 195 184 188 228 254 304 264 164
0 356 354 352 349 348 345 343 341 340 338 335 332 330 335 336 324 28 319 102 97 292 238 281 211 230 200 162 217 232 163 152 152 150 186 200 221 167 183 179 193 206 215 184 205 343 277
358 354 351 349 348 345 343 340 337 338 336 332 328 328 338 339 36 326 293 18 342 211 312 270 242 259 133 135 235 201 186 147 173 193 130 207 220 188 165 203 178 214 176 155 164 126 217
352 350 349 349 347 344 342 339 337 337 335 329 325 328 336 336 263 300 284 337 323 114 317 116 193 36 165 188 153 209 157 141 170 165 146 210 182 182 202 199 174 218 151 187 162 190 171
352 350 349 349 348 344 342 340 337 338 335 328 321 326 332 358 260 254 313 303 77 54 249 341 68 60 133 237 286 91 185 195 145 125 312 189 192 184 193 169 176 160 101 53 47 110 242
352 350 349 348 347 344 343 339 337 336 335 328 320 328 323 277 265 315 331 351 71 198 329 13 342 14 327 310 244 144 188 190 167 143 192 195 221 194 150 159 162 142 109 312 303 202 238
349 347 345 345 343 340 338 337 336 337 335 330 323 326 308 240 281 315 24 60 215 276 347 342 339 304 106 350 356 335 147 192 209 106 149 178 222 202 184 189 183 182 151 162 203 208 227
345 343 341 340 338 338 337 336 335 337 337 333 326 325 313 276 315 55 58 167 220 348 345 329 313 50 354 349 346 337 0 202 199 178 160 170 241 215 169 160 162 193 194 174 83 270 45
340 338 337 336 335 336 335 336 335 336 336 335 332 338 284 312 312 60 68 281 288 3 349 341 355 28 12 336 23 22 29 337 337 7 344 222 227 204 206 125 189 165 152 145 7 194 238
337 335 331 328 328 328 330 334 334 334 335 337 27 356 269 333 51 45 95 275 303 338 332 332 344 330 3 359 357 359 2 47 7 335 27 14 124 302 118 201 192 130 180 126 146 159 200
339 337 335 332 329 325 327 332 333 333 336 46 32 340 318 351 48 15 342 308 318 338 355 315 267 272 309 6 349 15 49 44 1 324 22 7 112 220 201 230 224 214 186 147 142 224 249
336 333 334 334 329 324 327 332 334 333 351 17 349 290 314 43 54 344 304 290 326 346 335 330 321 26 355 26 9 8 14 74 7 10 30 330 359 74 54 301 163 188 216 191 217 88 208
338 343 342 340 338 337 338 341 337 337 343 76 27 346 323 26 27 353 329 300 350 342 347 335 330 43 11 11 10 351 355 25 336 5 24 44 79 102 214 307 359 314 295 204 208 223 229
339 342 343 344 345 347 346 348 341 336 341 84 30 296 5 309 333 331 322 285 319 354 345 0 347 19 353 327 1 17 356 338 320 17 19 83 5 337 237 279 250 247 261 269 244 225 220
335 338 341 340 340 342 342 343 342 339 69 70 306 308 312 286 291 312 327 299 323 352 306 328 325 342 335 279 10 314 19 319 278 343 15 358 253 147 273 274 300 283 266 258 252 255 259
334 338 339 337 340 338 337 337 341 346 111 266 244 274 198 322 306 291 268 295 311 332 288 228 317 324 325 344 307 260 221 242 238 294 339 328 211 127 254 304 322 296 255 241 238 208 205
329 335 332 335 333 335 335 333 333 343 184 189 241 250 241 280 269 283 289 299 297 302 280 292 296 286 262 336 295 279 229 236 245 244 191 199 210 191 235 303 248 235 304 277 232 230 222
327 328 329 329 327 326 329 327 326 324 350 172 209 212 252 266 259 270 261 279 327 309 281 263 275 253 309 301 326 335 332 290 245 237 208 203 155 255 199 213 292 304 319 39 39 282 246
324 324 325 321 316 315 314 314 315 316 316 140 221 187 257 278 242 252 258 215 295 291 277 264 308 314 105 88 77 236 252 270 291 302 214 195 210 197 182 209 228 226 176 260 182 258 327
322 320 313 311 311 306 304 304 304 303 304 169 248 190 239 261 238 234 251 240 188 248 264 283 309 333 69 199 222 224 248 235 259 236 308 152 190 215 227 250 281 247 308 290 204 275 320
316 315 309 311 306 306 305 300 298 296 290 231 235 184 213 249 263 239 239 256 253 228 233 290 352 282 42 215 215 238 242 252 290 255 218 173 174 195 214 242 241 44 277 202 332 306 307
312 310 308 307 308 308 304 300 293 287 285 262 223 177 189 239 266 280 259 244 233 229 229 202 238 332 265 192 227 274 265 263 267 270 293 226 206 207 200 219 255 150 208 248 273 277 304